[[{"header":{"parameterUnit":"m.s-1","parameterCategory":2,"la1":30.2991,"la2":30.254,"lo1":-89.0895,"lo2":-89.0444,"dy":0.0017,"dx":0.0017,"nx":28,"ny":28,"refTime":"2023-08-05T09:00:00:Z","depth":"0","parameterNumber":2,"parameterNumberName":"U-component_of_CURRENTS"},"data":[0,0,0,0,0,0,0,0,0,0,0,0,0,0,0,0,0,0,0,0,0,0,0,0,0,0,0,0,0,0,0,0,0,0,0,0,0,0,0,0,0,0,0,0,0,0,0,0,0,0,0,0,0,0,0,0,0,0,0.1976,0.1977,0,0.1995,0.1995,0.1994,0.1992,0.1992,0.1993,0.1993,0.2107,0.211,0.2112,0,0,0,0,0,0,0,0,0,0,0,0,0,0.1969,0.1968,0.1976,0.1977,0.1978,0.1995,0.1994,0.1994,0.1992,0.1992,0.1993,0.1994,0.2107,0.211,0.2113,0,0,0,0,0,0,0,0,0,0,0,0,0,0.1969,0.1967,0.1975,0.1986,0.1988,0.1995,0.1994,0.1994,0.1991,0.1992,0.1993,0.1994,0.2106,0.2109,0.2113,0.2119,0,0,0.2124,0.2126,0,0,0,0,0,0,0,0,0.1969,0.1968,0.1983,0.1985,0.1988,0.2,0.2034,0.2044,0.1991,0.198,0.1993,0.1994,0.2086,0.2091,0.2078,0.2124,0.2129,0.2125,0.2127,0.2129,0.213,0,0,0,0,0,0,0,0.1969,0.1967,0.1973,0.1985,0.1987,0.2002,0.2001,0.2035,0.2022,0.1981,0.1983,0.2,0.2087,0.2074,0.2081,0.2131,0.2125,0.2128,0.213,0.2132,0.2308,0.2311,0,0,0,0,0,0,0.1983,0.1967,0.1973,0.1975,0.1991,0.2002,0.2001,0.1987,0.202,0.2027,0.2,0.2001,0.2067,0.2077,0.2085,0.2183,0.2129,0.2132,0.2134,0.2306,0.2309,0.2311,0,0,0,0,0,0,0.1982,0.1982,0.1972,0.1981,0.1982,0.2002,0.1986,0.1988,0.1981,0.2035,0.2043,0.1995,0.2068,0.208,0.2163,0.2185,0.2134,0.2137,0.2303,0.2307,0.231,0.2323,0,0,0,0,0,0,0.1981,0.198,0.1982,0.1981,0.1983,0.1987,0.1987,0.1988,0.1995,0.1996,0.2033,0.2044,0.207,0.2158,0.2167,0.2189,0.214,0.23,0.2305,0.2309,0.232,0.2327,0.2333,0,0,0,0,0,0.198,0.1972,0.1981,0.1983,0.198,0.1988,0.1989,0.2,0.1994,0.1994,0.2051,0.2043,0.2193,0.2163,0.2173,0.2197,0.2298,0.2303,0.2309,0.2317,0.2325,0.2333,0,0,0,0,0,0,0.1965,0.1973,0.1981,0.1975,0.1991,0.1992,0.2005,0.1998,0.2031,0.2043,0.2077,0.2094,0.2174,0.2191,0.2157,0.2266,0.2242,0.225,0.2245,0.2253,0.226,0.2251,0.2143,0,0,0,0,0,0.1965,0.1955,0.1977,0.1969,0.1988,0.1993,0.2,0.2002,0.2032,0.2043,0.207,0.2126,0.22,0.2232,0.2286,0.234,0.2378,0.2364,0.2371,0.2376,0.238,0.2465,0.2479,0.233,0.2329,0.2329,0,0,0.1935,0.196,0.194,0.1966,0.1982,0.2008,0.1996,0.2008,0.2022,0.2056,0.2091,0.2149,0.2224,0.2299,0.2334,0.2316,0.2445,0.2383,0.2387,0.2388,0.2473,0.2487,0.25,0.2333,0.2333,0.2332,0,0,0.1917,0.1921,0.1928,0.1948,0.1995,0.2012,0.2017,0.2026,0.2031,0.2082,0.2126,0.221,0.2277,0.2347,0.2394,0.2471,0.2481,0.2474,0.2494,0.2577,0.2589,0.26,0.2683,0.2702,0.2471,0.2471,0.2471,0,0.1882,0.1917,0.193,0.1969,0.1999,0.2017,0.2047,0.2051,0.2078,0.2105,0.2104,0.2265,0.2309,0.2443,0.2464,0.2485,0.2526,0.2451,0.2583,0.2595,0.2606,0.2688,0.2709,0.2473,0.2473,0.2472,0.2472,0,0.1925,0.1924,0.1937,0.1995,0.2024,0.2045,0.2082,0.2091,0.2112,0.2136,0.2248,0.2331,0.2436,0.2456,0.248,0.2589,0.2593,0.2583,0.2553,0.2622,0.2705,0.2725,0.2475,0.2474,0.2474,0.2473,0,0,0.1928,0.1946,0.1959,0.199,0.2043,0.2082,0.2104,0.2163,0.2205,0.2246,0.2333,0.2446,0.249,0.2549,0.2599,0.2652,0.2763,0.2636,0.264,0.2702,0.2948,0.2936,0.2958,0.2764,0.2767,0.277,0.2979,0,0.1968,0.2004,0.2027,0.2082,0.2117,0.2136,0.2171,0.2218,0.2257,0.2334,0.2431,0.2546,0.2529,0.2606,0.2658,0.2741,0.2816,0.2708,0.2887,0.2893,0.286,0.2981,0.287,0.3045,0.2999,0.3003,0.3005,0,0.2064,0.2079,0.2093,0.2142,0.217,0.2198,0.2293,0.2335,0.2417,0.2448,0.2554,0.2626,0.2757,0.2727,0.29,0.2827,0.2891,0.2938,0.2948,0.2943,0.292,0.2969,0.3084,0.294,0.3037,0.3034,0.3032,0,0.2134,0.216,0.2169,0.2181,0.2219,0.2242,0.2303,0.2367,0.2408,0.2544,0.2595,0.275,0.2856,0.2947,0.3025,0.2977,0.3197,0.3157,0.3222,0.3222,0.3169,0.3158,0.315,0.3298,0.3297,0.3296,0.3296,0,0.2176,0.2209,0.219,0.2204,0.2257,0.2307,0.2376,0.2428,0.2516,0.2584,0.2682,0.277,0.2906,0.3028,0.3085,0.3224,0.3264,0.3262,0.3288,0.3173,0.3161,0.3063,0.308,0.3304,0.3303,0.3301,0.33,0,0.2174,0.217,0.2218,0.2257,0.2265,0.2322,0.2382,0.2424,0.2522,0.2613,0.2669,0.2818,0.2985,0.3111,0.3291,0.3317,0.3367,0.3483,0.3338,0.3343,0.324,0.3267,0.3265,0.3168,0.3605,0.3606,0.3607,0,0.2141,0.2141,0.2221,0.224,0.2232,0.2291,0.2301,0.2402,0.2433,0.2623,0.2665,0.2877,0.2994,0.3271,0.3394,0.3564,0.3427,0.353,0.3421,0.325,0.33,0.315,0.3056,0.3372,0.3371,0.337,0.3369,0,0.2056,0.2097,0.2114,0.2162,0.2185,0.2209,0.2248,0.2267,0.2396,0.2488,0.2638,0.2777,0.3076,0.321,0.3437,0.3518,0.3359,0.3518,0.3383,0.3171,0.297,0.2881,0.3215,0.3362,0.3362,0.3363,0.3363,0.3364,0.1994,0.1967,0.2,0.206,0.2088,0.2093,0.2103,0.2143,0.2213,0.2329,0.2534,0.2682,0.2921,0.3245,0.334,0.3348,0.3369,0.324,0.3311,0.3185,0.301,0.3329,0.3465,0.3466,0.3467,0.3468,0.3469,0,0.1869,0.1849,0.1881,0.1943,0.1967,0.2013,0.2022,0.2015,0.2051,0.2187,0.2338,0.2515,0.269,0.2873,0.3045,0.3075,0.2951,0.303,0.2768,0.2703,0.3027,0.2924,0.2894,0.2894,0.2894,0.2894,0.2895,0.2895,0.1794,0.1747,0.1769,0.1798,0.184,0.1813,0.1808,0.1815,0.1869,0.1937,0.2008,0.2147,0.2381,0.2613,0.2716,0.2762,0.2598,0.2606,0.2573,0.2774,0.2793,0.2812,0.2706,0.2632,0.2632,0.2024,0.202,0.2018]},{"header":{"parameterUnit":"m.s-1","parameterCategory":2,"la1":30.2991,"la2":30.254,"lo1":-89.0895,"lo2":-89.0444,"dy":0.0017,"dx":0.0017,"nx":28,"ny":28,"refTime":"2023-08-05T09:00:00:Z","depth":"0","parameterNumber":3,"parameterNumberName":"V-component_of_CURRENTS"},"data":[0,0,0,0,0,0,0,0,0,0,0,0,0,0,0,0,0,0,0,0,0,0,0,0,0,0,0,0,0,0,0,0,0,0,0,0,0,0,0,0,0,0,0,0,0,0,0,0,0,0,0,0,0,0,0,0,0,0,0.09,0.09,0,0.0908,0.0908,0.0909,0.1006,0.1008,0.101,0.1011,0.1048,0.1047,0.1046,0,0,0,0,0,0,0,0,0,0,0,0,0,0.1028,0.1025,0.09,0.09,0.0899,0.0908,0.0908,0.0909,0.1006,0.1008,0.101,0.1012,0.1048,0.1047,0.1046,0,0,0,0,0,0,0,0,0,0,0,0,0,0.1004,0.1024,0.09,0.0943,0.0946,0.0907,0.0909,0.0909,0.1005,0.1008,0.1011,0.1013,0.1048,0.1047,0.1046,0.0986,0,0,0.1043,0.1043,0,0,0,0,0,0,0,0,0.1005,0.1,0.0937,0.094,0.0943,0.0952,0.0967,0.0934,0.1005,0.099,0.1011,0.1014,0.1012,0.1014,0.1019,0.0988,0.099,0.1043,0.1042,0.1042,0.1042,0,0,0,0,0,0,0,0.1007,0.1001,0.0911,0.0936,0.094,0.0981,0.0981,0.0962,0.0992,0.0992,0.0997,0.0986,0.1015,0.102,0.1021,0.099,0.1043,0.1042,0.1042,0.1041,0.0959,0.0957,0,0,0,0,0,0,0.0984,0.1001,0.091,0.091,0.0974,0.0976,0.0976,0.0953,0.0992,0.0998,0.0983,0.099,0.1021,0.1022,0.1022,0.1056,0.1042,0.1041,0.104,0.096,0.0958,0.0957,0,0,0,0,0,0,0.0987,0.0976,0.091,0.0952,0.0945,0.097,0.0943,0.0951,0.0963,0.0984,0.0993,0.0987,0.1023,0.1024,0.1048,0.1054,0.1041,0.104,0.0962,0.096,0.0958,0.1056,0,0,0,0,0,0,0.099,0.0976,0.0978,0.0949,0.0942,0.0897,0.094,0.0949,0.0948,0.0958,0.0989,0.0996,0.1025,0.105,0.1047,0.1053,0.1039,0.0964,0.0961,0.0958,0.1055,0.1058,0.106,0,0,0,0,0,0.0995,0.1025,0.0977,0.0967,0.0933,0.0895,0.0896,0.0929,0.0945,0.095,0.0995,0.0995,0.1027,0.1049,0.1046,0.1051,0.0966,0.0962,0.0959,0.1054,0.1057,0.106,0,0,0,0,0,0,0.1088,0.1034,0.0984,0.0992,0.0929,0.0909,0.0943,0.0915,0.0949,0.0979,0.0995,0.1004,0.1022,0.1,0.1023,0.1008,0.0985,0.0981,0.1058,0.1061,0.1064,0.1132,0.1038,0,0,0,0,0,0.109,0.1095,0.1009,0.1004,0.0986,0.0941,0.0938,0.0929,0.0937,0.0955,0.0971,0.0983,0.0995,0.1006,0.1007,0.1002,0.0975,0.0988,0.0991,0.0994,0.104,0.0979,0.0982,0.0945,0.0945,0.0945,0,0,0.1091,0.1088,0.1068,0.1022,0.0997,0.0992,0.0952,0.0943,0.0971,0.0949,0.1024,0.0994,0.0992,0.1016,0.1016,0.1009,0.0984,0.0989,0.0993,0.1039,0.0976,0.098,0.0984,0.0943,0.0943,0.0944,0,0,0.1127,0.1117,0.1118,0.1081,0.1038,0.1043,0.1026,0.0983,0.1011,0.1028,0.1028,0.1021,0.1024,0.1042,0.1048,0.1047,0.0996,0.0997,0.1082,0.102,0.1025,0.1028,0.0992,0.0992,0.1003,0.1003,0.1003,0,0.1121,0.1109,0.1106,0.1105,0.1098,0.1065,0.1051,0.1086,0.1058,0.1065,0.1075,0.1069,0.1061,0.1094,0.1109,0.1064,0.1013,0.1086,0.1031,0.1033,0.1035,0.0997,0.0996,0.1008,0.1007,0.1007,0.1006,0,0.1144,0.1118,0.1133,0.1132,0.1153,0.1126,0.1152,0.1179,0.1204,0.1191,0.1207,0.1205,0.1193,0.1166,0.1162,0.1147,0.11,0.1042,0.1042,0.1047,0.1004,0.1001,0.1014,0.1012,0.1011,0.101,0,0,0.1114,0.1125,0.1123,0.1116,0.1146,0.1168,0.1261,0.1282,0.1319,0.133,0.1351,0.1381,0.1325,0.1326,0.1274,0.1245,0.1212,0.1158,0.1153,0.1159,0.1079,0.1053,0.1046,0.1125,0.1125,0.1125,0.1043,0,0.1082,0.1092,0.1134,0.116,0.1151,0.1202,0.1294,0.1344,0.1375,0.1402,0.1412,0.1415,0.1403,0.1372,0.1351,0.123,0.1208,0.1242,0.1045,0.1041,0.1046,0.1043,0.1088,0.1018,0.1039,0.1039,0.1038,0,0.1065,0.1081,0.1077,0.1149,0.116,0.1213,0.1343,0.1416,0.1473,0.1476,0.1491,0.1466,0.147,0.143,0.1332,0.1339,0.1238,0.1163,0.1155,0.1109,0.1009,0.1013,0.1011,0.0891,0.1033,0.1033,0.1034,0,0.1063,0.1058,0.1075,0.1076,0.1159,0.1213,0.1314,0.1406,0.1471,0.151,0.1517,0.1506,0.1502,0.1401,0.1291,0.128,0.1154,0.1099,0.1005,0.1001,0.0998,0.0994,0.0899,0.1035,0.1035,0.1035,0.1036,0,0.102,0.1024,0.1057,0.1066,0.113,0.122,0.1312,0.1396,0.1472,0.1531,0.1549,0.158,0.1487,0.1414,0.1295,0.1158,0.1154,0.1048,0.0983,0.1028,0.1028,0.089,0.0853,0.1032,0.1033,0.1033,0.1034,0,0.0979,0.0984,0.1016,0.1093,0.1117,0.1196,0.1338,0.1401,0.1478,0.1552,0.1573,0.1614,0.1545,0.1439,0.1262,0.1168,0.0993,0.0965,0.1047,0.0995,0.0804,0.0772,0.0683,0.0745,0.0857,0.0856,0.0855,0,0.095,0.0942,0.1041,0.1086,0.1107,0.1202,0.1273,0.1391,0.1453,0.158,0.1615,0.1603,0.1619,0.1406,0.1215,0.1019,0.0962,0.0916,0.0922,0.0827,0.0741,0.0737,0.0798,0.0947,0.0947,0.0947,0.0947,0,0.0892,0.0936,0.0977,0.1063,0.1136,0.1231,0.1336,0.138,0.1523,0.1598,0.1701,0.1735,0.1588,0.1457,0.1205,0.1065,0.0912,0.0907,0.0777,0.0803,0.0825,0.0842,0.0977,0.0947,0.0947,0.0947,0.0947,0.0947,0.088,0.0883,0.096,0.1044,0.1143,0.1267,0.1352,0.1455,0.1587,0.1747,0.177,0.1875,0.1674,0.1374,0.1172,0.0831,0.0889,0.0739,0.0707,0.0709,0.0783,0.0938,0.0845,0.0845,0.0844,0.0844,0.0843,0,0.086,0.0868,0.0941,0.1077,0.1198,0.126,0.1395,0.1493,0.1643,0.1803,0.1927,0.1922,0.165,0.1349,0.0882,0.0664,0.0676,0.0544,0.055,0.0628,0.0715,0.0732,0.0648,0.0649,0.0649,0.0649,0.0649,0.0649,0.0864,0.0881,0.0903,0.1083,0.119,0.1341,0.1427,0.1584,0.1719,0.1916,0.2024,0.2127,0.1957,0.1094,0.0579,0.0462,0.0394,0.0337,0.0338,0.0349,0.0364,0.0379,0.0382,0.0227,0.0227,0.0333,0.0332,0.0332]}],[{"header":{"parameterUnit":"m.s-1","parameterCategory":2,"la1":30.2991,"la2":30.254,"lo1":-89.0895,"lo2":-89.0444,"dy":0.0017,"dx":0.0017,"nx":28,"ny":28,"refTime":"2023-08-05T09:00:00:Z","depth":"2","parameterNumber":2,"parameterNumberName":"U-component_of_CURRENTS"},"data":[0,0,0,0,0,0,0,0,0,0,0,0,0,0,0,0,0,0,0,0,0,0,0,0,0,0,0,0,0,0,0,0,0,0,0,0,0,0,0,0,0,0,0,0,0,0,0,0,0,0,0,0,0,0,0,0,0,0,0.117,0.1168,0,0.1181,0.1183,0.1186,0.1233,0.1232,0.123,0.1229,0.1123,0.1122,0.1121,0,0,0,0,0,0,0,0,0,0,0,0,0,0.1467,0.1462,0.1171,0.1168,0.1166,0.118,0.1183,0.1186,0.1234,0.1232,0.123,0.1228,0.1124,0.1122,0.1121,0,0,0,0,0,0,0,0,0,0,0,0,0,0.142,0.1461,0.1171,0.117,0.1168,0.118,0.1183,0.1187,0.1234,0.1232,0.1229,0.1227,0.1124,0.1122,0.112,0.1152,0,0,0.1114,0.1113,0,0,0,0,0,0,0,0,0.1423,0.1413,0.1173,0.117,0.1167,0.1179,0.1248,0.1159,0.1234,0.1239,0.1229,0.1226,0.1114,0.1113,0.1162,0.1147,0.1142,0.1114,0.1112,0.1111,0.1111,0,0,0,0,0,0,0,0.1426,0.1414,0.1204,0.117,0.1166,0.1261,0.1253,0.1236,0.1209,0.1238,0.1235,0.1192,0.1116,0.1164,0.1159,0.1141,0.1114,0.1112,0.111,0.111,0.1273,0.1278,0,0,0,0,0,0,0.1354,0.1415,0.1203,0.1201,0.126,0.1254,0.1247,0.1201,0.1211,0.1204,0.1193,0.1193,0.1169,0.1161,0.1155,0.116,0.1111,0.1109,0.1108,0.1267,0.1274,0.128,0,0,0,0,0,0,0.1361,0.1335,0.1202,0.1287,0.1273,0.1247,0.1198,0.1201,0.128,0.1173,0.1169,0.1266,0.1167,0.1158,0.1139,0.1156,0.1108,0.1106,0.1261,0.127,0.1277,0.1187,0,0,0,0,0,0,0.137,0.1338,0.1361,0.1281,0.1264,0.1179,0.1197,0.1202,0.1239,0.1242,0.1233,0.122,0.1164,0.1143,0.1137,0.1152,0.1105,0.1254,0.1265,0.1275,0.1183,0.1192,0.1199,0,0,0,0,0,0.138,0.1228,0.1362,0.1339,0.1268,0.1175,0.118,0.1176,0.1245,0.1255,0.1263,0.1222,0.1209,0.1142,0.1135,0.115,0.1249,0.1262,0.1274,0.118,0.119,0.1199,0,0,0,0,0,0,0.1273,0.1217,0.1359,0.1194,0.1236,0.1171,0.1138,0.1217,0.1254,0.1264,0.1241,0.1225,0.1255,0.1243,0.1172,0.1256,0.1246,0.1258,0.1178,0.1188,0.1196,0.0984,0.1103,0,0,0,0,0,0.1304,0.1214,0.1247,0.1125,0.1161,0.1232,0.1228,0.1248,0.1223,0.1246,0.1242,0.1272,0.1309,0.127,0.1304,0.1288,0.1256,0.1329,0.1336,0.1341,0.1183,0.1253,0.1247,0.1322,0.1322,0.1322,0,0,0.1208,0.1171,0.1123,0.1112,0.1158,0.1156,0.1226,0.1178,0.1197,0.1219,0.1236,0.1305,0.1335,0.1338,0.135,0.1301,0.1323,0.1357,0.1359,0.1193,0.1265,0.1255,0.1247,0.1331,0.1329,0.1328,0,0,0.0992,0.0998,0.0964,0.1011,0.1075,0.1066,0.108,0.1119,0.1184,0.1214,0.1285,0.1268,0.1359,0.1293,0.1301,0.1365,0.1409,0.1537,0.1313,0.139,0.1378,0.1368,0.1351,0.1339,0.1482,0.1482,0.1482,0,0.0964,0.0921,0.093,0.0962,0.0995,0.1037,0.1086,0.1092,0.1119,0.1185,0.1192,0.1327,0.1271,0.1272,0.1245,0.1343,0.1439,0.1251,0.1381,0.137,0.136,0.1345,0.1333,0.1479,0.1479,0.148,0.148,0,0.086,0.0848,0.0779,0.0872,0.0892,0.0864,0.0927,0.0965,0.1044,0.1086,0.1186,0.1136,0.1184,0.1228,0.1183,0.1172,0.1285,0.1422,0.1308,0.1344,0.1332,0.132,0.1475,0.1476,0.1477,0.1478,0,0,0.0771,0.0751,0.0767,0.0825,0.089,0.084,0.0875,0.0942,0.0986,0.1004,0.1085,0.0998,0.1027,0.1027,0.1075,0.0994,0.0929,0.1134,0.114,0.102,0.1113,0.1034,0.1014,0.1197,0.1195,0.1193,0.1139,0,0.0794,0.0839,0.0809,0.0771,0.0829,0.0862,0.0886,0.0929,0.0987,0.1022,0.0992,0.1018,0.0965,0.0985,0.0919,0.0976,0.0898,0.0925,0.117,0.1169,0.1018,0.0995,0.1008,0.0951,0.1127,0.1125,0.1124,0,0.0897,0.0858,0.0941,0.0856,0.0894,0.0865,0.0961,0.096,0.1006,0.1124,0.1122,0.1072,0.0889,0.0896,0.0835,0.0933,0.0938,0.0932,0.094,0.0834,0.1065,0.0951,0.0923,0.1104,0.1106,0.1107,0.1108,0,0.0993,0.0962,0.1015,0.1016,0.0927,0.0989,0.0971,0.1058,0.1116,0.1145,0.116,0.1086,0.106,0.1012,0.0905,0.0908,0.0928,0.0972,0.0887,0.0885,0.0884,0.0883,0.0895,0.0895,0.0895,0.0895,0.0895,0,0.1074,0.1073,0.1076,0.1015,0.1028,0.1073,0.1145,0.1136,0.1273,0.129,0.1183,0.1139,0.1104,0.1067,0.0968,0.0902,0.1016,0.073,0.0838,0.0868,0.0866,0.0996,0.1008,0.0893,0.0894,0.0894,0.0894,0,0.1171,0.1195,0.1066,0.099,0.1037,0.1033,0.1169,0.1217,0.1363,0.1391,0.1343,0.1248,0.1147,0.1121,0.1088,0.0996,0.0908,0.0902,0.0872,0.0965,0.0752,0.0763,0.0599,0.0595,0.0591,0.0589,0.0586,0,0.1234,0.1251,0.1016,0.0935,0.0887,0.1011,0.1116,0.1289,0.1371,0.1387,0.1339,0.1229,0.1049,0.0989,0.0923,0.08,0.0926,0.0743,0.0581,0.0584,0.0708,0.0724,0.0739,0.059,0.0588,0.0586,0.0585,0,0.1164,0.1082,0.091,0.0855,0.0849,0.0886,0.1055,0.1139,0.1321,0.1291,0.1197,0.0979,0.0916,0.076,0.0727,0.0607,0.0717,0.0683,0.082,0.0644,0.0567,0.0693,0.071,0.0569,0.0571,0.0572,0.0573,0.0573,0.1006,0.0996,0.0816,0.074,0.0765,0.0803,0.0842,0.0966,0.1007,0.0942,0.092,0.0719,0.0716,0.0483,0.0474,0.0543,0.0441,0.0412,0.0423,0.0434,0.0422,0.0343,0.0296,0.0296,0.0296,0.0296,0.0296,0,0.0812,0.09,0.0789,0.063,0.0639,0.0725,0.0838,0.0858,0.0823,0.0756,0.0623,0.0484,0.03,0.0442,0.0474,0.0316,0.0324,0.0335,0.0451,0.0462,0.0474,0.0471,0.0354,0.0355,0.0355,0.0356,0,0,0.0722,0.0672,0.0727,0.0617,0.0618,0.0717,0.0788,0.0662,0.0674,0.0478,0.0454,0.0234,0.0374,0.0402,0.0348,0.045,0.0449,0.0389,0.0337,0.049,0.0503,0.0498,0.0501,0,0,0,0,0]},{"header":{"parameterUnit":"m.s-1","parameterCategory":2,"la1":30.2991,"la2":30.254,"lo1":-89.0895,"lo2":-89.0444,"dy":0.0017,"dx":0.0017,"nx":28,"ny":28,"refTime":"2023-08-05T09:00:00:Z","depth":"2","parameterNumber":3,"parameterNumberName":"V-component_of_CURRENTS"},"data":[0,0,0,0,0,0,0,0,0,0,0,0,0,0,0,0,0,0,0,0,0,0,0,0,0,0,0,0,0,0,0,0,0,0,0,0,0,0,0,0,0,0,0,0,0,0,0,0,0,0,0,0,0,0,0,0,0,0,0.0257,0.0254,0,0.0209,0.0212,0.0214,0.0258,0.0257,0.0255,0.0254,0.0191,0.019,0.019,0,0,0,0,0,0,0,0,0,0,0,0,0,0.0598,0.0594,0.0257,0.0253,0.0249,0.0209,0.0212,0.0214,0.0259,0.0257,0.0255,0.0253,0.0191,0.019,0.019,0,0,0,0,0,0,0,0,0,0,0,0,0,0.0524,0.0592,0.0258,0.0241,0.0236,0.0208,0.0212,0.0215,0.0259,0.0257,0.0254,0.0252,0.0191,0.019,0.019,0.0231,0,0,0.0188,0.0188,0,0,0,0,0,0,0,0,0.0528,0.0516,0.0247,0.0241,0.0236,0.0206,0.0307,0.0207,0.0259,0.0288,0.0254,0.0251,0.0173,0.0174,0.022,0.0228,0.0225,0.0188,0.0188,0.0188,0.0188,0,0,0,0,0,0,0,0.0533,0.0519,0.0274,0.0242,0.0235,0.0304,0.0294,0.0292,0.0271,0.0285,0.0279,0.0218,0.0174,0.0221,0.0218,0.0224,0.0188,0.0188,0.0188,0.0187,0.0197,0.0197,0,0,0,0,0,0,0.0457,0.0522,0.0275,0.0269,0.0339,0.0297,0.0287,0.0247,0.0271,0.0262,0.022,0.022,0.0223,0.0219,0.0216,0.0204,0.0188,0.0187,0.0187,0.0196,0.0197,0.0197,0,0,0,0,0,0,0.0466,0.0437,0.0276,0.0366,0.0345,0.0288,0.0247,0.0246,0.0303,0.0214,0.0213,0.0272,0.0221,0.0217,0.0175,0.0203,0.0187,0.0187,0.0196,0.0196,0.0197,0.0217,0,0,0,0,0,0,0.0477,0.0442,0.045,0.0361,0.0336,0.0243,0.0245,0.0246,0.025,0.0252,0.0258,0.025,0.0219,0.0176,0.0175,0.0202,0.0186,0.0195,0.0196,0.0197,0.0215,0.0218,0.022,0,0,0,0,0,0.049,0.0404,0.0452,0.0422,0.0329,0.0238,0.0239,0.0216,0.0254,0.0272,0.0251,0.0251,0.0183,0.0175,0.0174,0.0201,0.0194,0.0196,0.0197,0.0214,0.0218,0.022,0,0,0,0,0,0,0.0507,0.0396,0.0446,0.0329,0.0306,0.0232,0.0204,0.0241,0.0259,0.0261,0.0242,0.023,0.0224,0.0204,0.0196,0.0208,0.0197,0.0198,0.0211,0.0214,0.0217,0.0151,0.0186,0,0,0,0,0,0.053,0.0446,0.0401,0.0299,0.03,0.0303,0.0285,0.0282,0.0239,0.0254,0.0261,0.0252,0.0235,0.021,0.0208,0.0196,0.016,0.0219,0.0222,0.0224,0.017,0.012,0.0112,0.0201,0.0201,0.0201,0,0,0.0479,0.0412,0.0359,0.0303,0.0293,0.0284,0.0294,0.0238,0.0272,0.0236,0.0294,0.0276,0.024,0.0227,0.0224,0.0202,0.0195,0.0225,0.0227,0.0171,0.012,0.0111,0.0103,0.0202,0.0202,0.0202,0,0,0.0371,0.0324,0.0301,0.0278,0.0251,0.0242,0.024,0.0242,0.0305,0.0325,0.0317,0.0271,0.0297,0.0238,0.0217,0.0227,0.0229,0.0279,0.0211,0.0166,0.0157,0.0148,0.015,0.0141,0.0256,0.0256,0.0256,0,0.0382,0.0305,0.0273,0.0268,0.0229,0.0233,0.0244,0.0289,0.0287,0.0338,0.0332,0.0328,0.0285,0.0233,0.0205,0.0229,0.0223,0.0204,0.0166,0.0156,0.0146,0.0149,0.0139,0.0257,0.0257,0.0257,0.0257,0,0.0282,0.0262,0.0203,0.0222,0.0213,0.0145,0.02,0.0259,0.0322,0.0365,0.0393,0.0318,0.0294,0.0291,0.0225,0.0161,0.0192,0.0196,0.0151,0.0138,0.0144,0.0133,0.0259,0.0258,0.0258,0.0258,0,0,0.021,0.0176,0.0177,0.0176,0.0176,0.0117,0.0213,0.0278,0.0347,0.0363,0.0402,0.0326,0.0304,0.0268,0.0218,0.0114,0.0037,0.01,0.0097,0.0088,-0.0024,0.0044,0.0039,0.0046,0.0043,0.004,0.0027,0,0.0191,0.0201,0.0176,0.012,0.0121,0.0136,0.0216,0.0278,0.0368,0.0407,0.0352,0.0324,0.0306,0.0238,0.0165,0.008,-0.0001,0.0041,-0.0003,-0.0005,0.0046,0.0024,-0.0028,-0.0042,0.0016,0.0014,0.0013,0,0.0178,0.0147,0.0188,0.0119,0.0127,0.0107,0.0195,0.026,0.0359,0.0468,0.0456,0.0367,0.0228,0.0174,0.0062,0.0106,0.0016,-0.0066,-0.0065,-0.004,0.0039,-0.0031,-0.0065,-0.0006,-0.0004,-0.0003,-0.0002,0,0.0188,0.0138,0.0163,0.0124,0.0096,0.0126,0.0136,0.0292,0.0409,0.0444,0.0467,0.0384,0.0297,0.018,0.0033,0.0026,-0.0098,-0.01,-0.0114,-0.0105,-0.0188,-0.0182,-0.0249,-0.0249,-0.0249,-0.0249,-0.0249,0,0.0189,0.0154,0.0152,0.0099,0.0081,0.0113,0.0223,0.027,0.0427,0.051,0.0451,0.0425,0.0271,0.0162,0.0047,-0.0012,-0.0041,-0.0153,-0.0128,-0.0169,-0.0163,-0.0176,-0.0167,-0.0249,-0.0249,-0.0249,-0.0249,0,0.023,0.0262,0.0149,0.0083,0.0087,0.007,0.0219,0.0338,0.0488,0.057,0.0513,0.0458,0.0352,0.0234,0.0046,0.0032,-0.0088,-0.0126,-0.0135,-0.0113,-0.0072,-0.0062,-0.0146,-0.0144,-0.0143,-0.0141,-0.014,0,0.0276,0.0277,0.0097,0.008,0.0039,0.0111,0.0233,0.039,0.0529,0.058,0.0553,0.0407,0.0348,0.0227,0.0104,-0.0003,-0.0048,-0.0117,-0.0184,-0.0107,-0.0073,-0.0065,-0.0057,-0.026,-0.026,-0.026,-0.026,0,0.0259,0.0199,0.0093,0.0067,0.0095,0.0191,0.0315,0.0423,0.0605,0.0643,0.0606,0.0478,0.0344,0.0185,0.0083,-0.001,-0.0089,-0.0118,-0.0071,-0.0256,-0.021,-0.0177,-0.0168,-0.0261,-0.0261,-0.0261,-0.026,-0.026,0.0189,0.0181,0.0092,0.0041,0.0126,0.0275,0.0372,0.0528,0.0671,0.0648,0.0531,0.0415,0.0193,0.0047,-0.0046,-0.0061,-0.0078,-0.0165,-0.0168,-0.0171,-0.016,-0.0113,-0.014,-0.0139,-0.0139,-0.0138,-0.0138,0,0.0128,0.0191,0.0133,0.0103,0.0195,0.0259,0.0456,0.0583,0.0718,0.06,0.0506,0.0252,0.0065,-0.0022,-0.0062,-0.0156,-0.0195,-0.0172,-0.0246,-0.0246,-0.0247,-0.0242,-0.0242,-0.0242,-0.0242,-0.0242,0,0,0.016,0.0145,0.0145,0.0201,0.0253,0.0458,0.0594,0.0698,0.072,0.0612,0.0504,0.0146,0.0075,-0.004,-0.0185,-0.0154,-0.0163,-0.0157,-0.0078,-0.0153,-0.015,-0.0261,-0.0255,0,0,0,0,0]}],[{"header":{"parameterUnit":"m.s-1","parameterCategory":2,"la1":30.2991,"la2":30.254,"lo1":-89.0895,"lo2":-89.0444,"dy":0.0017,"dx":0.0017,"nx":28,"ny":28,"refTime":"2023-08-05T09:00:00:Z","depth":"4","parameterNumber":2,"parameterNumberName":"U-component_of_CURRENTS"},"data":[0,0,0,0,0,0,0,0,0,0,0,0,0,0,0,0,0,0,0,0,0,0,0,0,0,0,0,0,0,0,0,0,0,0,0,0,0,0,0,0,0,0,0,0,0,0,0,0,0,0,0,0,0,0,0,0,0,0,-0.0638,-0.0638,0,-0.0602,-0.0601,-0.06,-0.0577,-0.0577,-0.0578,-0.0578,-0.0694,-0.0696,-0.0699,0,0,0,0,0,0,0,0,0,0,0,0,0,-0.0553,-0.0555,-0.0638,-0.0638,-0.0638,-0.0602,-0.0601,-0.06,-0.0577,-0.0577,-0.0578,-0.0579,-0.0693,-0.0696,-0.0699,0,0,0,0,0,0,0,0,0,0,0,0,0,-0.0554,-0.0556,-0.0638,-0.0628,-0.0628,-0.0603,-0.0601,-0.0599,-0.0576,-0.0577,-0.0578,-0.0579,-0.0692,-0.0696,-0.0699,-0.0705,0,0,-0.0711,-0.0712,0,0,0,0,0,0,0,0,-0.0554,-0.0556,-0.063,-0.0629,-0.0629,-0.0602,-0.0614,-0.0645,-0.0576,-0.0587,-0.0578,-0.0579,-0.0682,-0.0686,-0.0664,-0.071,-0.0715,-0.0711,-0.0713,-0.0715,-0.0716,0,0,0,0,0,0,0,-0.0554,-0.0557,-0.0615,-0.063,-0.0629,-0.0581,-0.0583,-0.0618,-0.0626,-0.0586,-0.0587,-0.0595,-0.0682,-0.066,-0.0667,-0.0717,-0.0711,-0.0714,-0.0717,-0.0718,-0.0838,-0.0839,0,0,0,0,0,0,-0.0581,-0.0558,-0.0617,-0.0615,-0.0602,-0.0583,-0.0584,-0.0603,-0.0623,-0.0628,-0.0595,-0.0595,-0.0653,-0.0663,-0.0671,-0.0749,-0.0715,-0.0719,-0.0721,-0.0837,-0.0838,-0.0839,0,0,0,0,0,0,-0.058,-0.0587,-0.0618,-0.0591,-0.0593,-0.0586,-0.0605,-0.0602,-0.0591,-0.0629,-0.0635,-0.059,-0.0654,-0.0666,-0.0718,-0.0751,-0.072,-0.0724,-0.0836,-0.0837,-0.0839,-0.086,0,0,0,0,0,0,-0.0577,-0.0587,-0.0598,-0.0594,-0.0596,-0.0612,-0.0605,-0.0601,-0.0599,-0.0598,-0.0628,-0.0638,-0.0656,-0.0713,-0.0722,-0.0756,-0.0727,-0.0835,-0.0836,-0.0838,-0.0858,-0.0862,-0.0866,0,0,0,0,0,-0.0575,-0.0589,-0.0599,-0.0606,-0.0616,-0.0613,-0.0608,-0.0599,-0.0598,-0.0592,-0.0621,-0.0637,-0.073,-0.0716,-0.0727,-0.0763,-0.0834,-0.0836,-0.0838,-0.0857,-0.0861,-0.0865,0,0,0,0,0,0,-0.0562,-0.0588,-0.06,-0.0624,-0.0626,-0.0613,-0.062,-0.0603,-0.0612,-0.0626,-0.0649,-0.0661,-0.0725,-0.0735,-0.0718,-0.0801,-0.0785,-0.079,-0.0796,-0.0801,-0.0804,-0.0784,-0.073,0,0,0,0,0,-0.0568,-0.0582,-0.0601,-0.0618,-0.0636,-0.0627,-0.0623,-0.0615,-0.0628,-0.063,-0.0652,-0.0688,-0.0737,-0.0761,-0.0801,-0.084,-0.0828,-0.0869,-0.0873,-0.0875,-0.0866,-0.0897,-0.0903,-0.0846,-0.0846,-0.0846,0,0,-0.0571,-0.0585,-0.0595,-0.0615,-0.0628,-0.0637,-0.0626,-0.0634,-0.0631,-0.0649,-0.0669,-0.071,-0.0753,-0.0804,-0.0832,-0.0818,-0.0878,-0.0878,-0.088,-0.0869,-0.09,-0.0906,-0.091,-0.0847,-0.0847,-0.0847,0,0,-0.0579,-0.0606,-0.0625,-0.0627,-0.0648,-0.0646,-0.0654,-0.0654,-0.0654,-0.0676,-0.0702,-0.0749,-0.0804,-0.0834,-0.0861,-0.0904,-0.0904,-0.093,-0.0926,-0.0957,-0.0962,-0.0966,-0.0921,-0.0921,-0.0922,-0.0922,-0.0922,0,-0.0588,-0.0609,-0.0625,-0.0639,-0.0644,-0.0657,-0.0667,-0.0667,-0.0672,-0.0686,-0.0694,-0.0778,-0.0815,-0.0878,-0.0894,-0.0913,-0.0908,-0.0908,-0.0961,-0.0965,-0.0969,-0.0922,-0.0922,-0.0924,-0.0923,-0.0923,-0.0923,0,-0.0588,-0.0619,-0.0638,-0.0663,-0.0661,-0.0676,-0.069,-0.0697,-0.071,-0.0712,-0.0775,-0.0815,-0.0859,-0.0889,-0.0908,-0.0962,-0.094,-0.097,-0.0948,-0.0976,-0.0924,-0.0923,-0.0925,-0.0925,-0.0925,-0.0924,0,0,-0.0599,-0.0634,-0.0645,-0.0657,-0.0674,-0.0672,-0.0694,-0.0716,-0.0725,-0.0758,-0.0782,-0.0861,-0.088,-0.0909,-0.0943,-0.0967,-0.098,-0.0979,-0.098,-0.0926,-0.1,-0.0914,-0.0904,-0.1035,-0.1036,-0.1037,-0.0938,0,-0.0611,-0.063,-0.0641,-0.0663,-0.0681,-0.0694,-0.07,-0.0712,-0.0735,-0.0762,-0.0824,-0.087,-0.089,-0.092,-0.0951,-0.0989,-0.0986,-0.1,-0.0986,-0.0983,-0.0901,-0.0905,-0.104,-0.0937,-0.0937,-0.0937,-0.0937,0,-0.0617,-0.0623,-0.0641,-0.0662,-0.0674,-0.0674,-0.0686,-0.0696,-0.0744,-0.0771,-0.0827,-0.0864,-0.0916,-0.0934,-0.0971,-0.0985,-0.0985,-0.0998,-0.0996,-0.0908,-0.0898,-0.0914,-0.0935,-0.0935,-0.0935,-0.0935,-0.0936,0,-0.06,-0.0636,-0.0643,-0.0644,-0.0659,-0.0665,-0.0678,-0.0699,-0.0718,-0.0781,-0.0797,-0.0866,-0.0901,-0.0934,-0.0939,-0.097,-0.0958,-0.1003,-0.0906,-0.0897,-0.0994,-0.0991,-0.1014,-0.1014,-0.1014,-0.1015,-0.1015,0,-0.0605,-0.0622,-0.0633,-0.0634,-0.063,-0.0645,-0.0657,-0.0681,-0.0725,-0.0744,-0.0801,-0.0806,-0.0913,-0.0913,-0.0925,-0.0885,-0.0937,-0.0887,-0.0877,-0.0998,-0.0998,-0.099,-0.0988,-0.1011,-0.1012,-0.1012,-0.1013,0,-0.0607,-0.0616,-0.0619,-0.0624,-0.0628,-0.0618,-0.0652,-0.0656,-0.0696,-0.0721,-0.0744,-0.0786,-0.0778,-0.0814,-0.0851,-0.0844,-0.0829,-0.0797,-0.0854,-0.0852,-0.0744,-0.0745,-0.0688,-0.0684,-0.0681,-0.0679,-0.0677,0,-0.0611,-0.0616,-0.061,-0.0582,-0.0589,-0.0591,-0.0592,-0.0646,-0.0657,-0.0678,-0.0682,-0.0687,-0.0704,-0.0638,-0.0711,-0.0694,-0.0707,-0.0677,-0.0777,-0.0719,-0.0716,-0.0722,-0.0727,-0.0672,-0.0671,-0.067,-0.0669,0,-0.061,-0.061,-0.0601,-0.056,-0.054,-0.053,-0.0544,-0.0553,-0.0601,-0.0642,-0.0589,-0.0576,-0.0556,-0.0578,-0.0562,-0.0564,-0.0699,-0.0646,-0.0655,-0.0748,-0.0699,-0.07,-0.0709,-0.0659,-0.066,-0.0661,-0.0662,0,-0.0605,-0.0584,-0.0568,-0.0518,-0.0485,-0.0449,-0.0475,-0.0467,-0.0488,-0.0527,-0.0498,-0.0488,-0.0527,-0.0504,-0.0484,-0.0483,-0.051,-0.0523,-0.0538,-0.0551,-0.0563,-0.0485,-0.0354,0,0,0,0,0,-0.0595,-0.0565,-0.0523,-0.0445,-0.041,-0.0393,-0.0424,-0.0455,-0.0508,-0.0448,-0.0478,-0.0442,-0.0416,-0.0413,-0.0393,-0.046,-0.0531,-0.0437,-0.0558,-0.06,-0.0613,-0.0647,0,0,0,0,0,0,-0.0568,-0.0555,-0.0516,-0.0395,-0.0327,-0.0294,-0.0304,-0.0343,-0.0324,-0.0374,-0.0355,-0.0394,-0.0377,-0.0398,-0.0365,-0.0374,-0.0441,-0.0451,-0.0449,-0.0593,-0.0604,-0.0614,-0.0654,0,0,0,0,0]},{"header":{"parameterUnit":"m.s-1","parameterCategory":2,"la1":30.2991,"la2":30.254,"lo1":-89.0895,"lo2":-89.0444,"dy":0.0017,"dx":0.0017,"nx":28,"ny":28,"refTime":"2023-08-05T09:00:00:Z","depth":"4","parameterNumber":3,"parameterNumberName":"V-component_of_CURRENTS"},"data":[0,0,0,0,0,0,0,0,0,0,0,0,0,0,0,0,0,0,0,0,0,0,0,0,0,0,0,0,0,0,0,0,0,0,0,0,0,0,0,0,0,0,0,0,0,0,0,0,0,0,0,0,0,0,0,0,0,0,-0.0337,-0.0337,0,-0.0364,-0.0364,-0.0364,-0.0394,-0.0395,-0.0396,-0.0396,-0.0447,-0.0448,-0.0449,0,0,0,0,0,0,0,0,0,0,0,0,0,-0.0282,-0.0283,-0.0337,-0.0337,-0.0337,-0.0364,-0.0364,-0.0364,-0.0394,-0.0395,-0.0396,-0.0396,-0.0447,-0.0448,-0.0449,0,0,0,0,0,0,0,0,0,0,0,0,0,-0.0306,-0.0284,-0.0337,-0.0356,-0.0358,-0.0363,-0.0364,-0.0364,-0.0394,-0.0395,-0.0396,-0.0397,-0.0446,-0.0447,-0.0449,-0.0441,0,0,-0.0453,-0.0453,0,0,0,0,0,0,0,0,-0.0305,-0.0308,-0.0353,-0.0355,-0.0357,-0.0377,-0.0363,-0.0391,-0.0394,-0.038,-0.0396,-0.0397,-0.0426,-0.0429,-0.043,-0.0443,-0.0445,-0.0453,-0.0454,-0.0454,-0.0454,0,0,0,0,0,0,0,-0.0303,-0.0307,-0.0346,-0.0353,-0.0356,-0.0354,-0.0358,-0.0368,-0.0398,-0.0381,-0.0383,-0.0388,-0.0427,-0.0429,-0.0432,-0.0446,-0.0453,-0.0454,-0.0455,-0.0455,-0.0485,-0.0485,0,0,0,0,0,0,-0.0303,-0.0306,-0.0346,-0.0347,-0.0334,-0.0355,-0.0359,-0.0369,-0.0397,-0.0402,-0.0387,-0.0389,-0.0427,-0.043,-0.0434,-0.0463,-0.0454,-0.0455,-0.0456,-0.0485,-0.0485,-0.0485,0,0,0,0,0,0,-0.0302,-0.0306,-0.0344,-0.0327,-0.0332,-0.0355,-0.0366,-0.0369,-0.0388,-0.0402,-0.0407,-0.0403,-0.0427,-0.0432,-0.044,-0.0464,-0.0456,-0.0457,-0.0485,-0.0485,-0.0485,-0.0497,0,0,0,0,0,0,-0.03,-0.0306,-0.0305,-0.0328,-0.0333,-0.0355,-0.0365,-0.0369,-0.0389,-0.0392,-0.0417,-0.0422,-0.0428,-0.0438,-0.0442,-0.0465,-0.0458,-0.0485,-0.0485,-0.0485,-0.0496,-0.0497,-0.0498,0,0,0,0,0,-0.0298,-0.0295,-0.0305,-0.0309,-0.0334,-0.0355,-0.0358,-0.0375,-0.0389,-0.0395,-0.0403,-0.0422,-0.0442,-0.0439,-0.0443,-0.0467,-0.0485,-0.0485,-0.0485,-0.0496,-0.0497,-0.0498,0,0,0,0,0,0,-0.0278,-0.0298,-0.031,-0.0316,-0.0338,-0.0361,-0.0361,-0.0382,-0.0394,-0.0401,-0.0414,-0.0418,-0.0445,-0.0443,-0.044,-0.0474,-0.047,-0.0471,-0.0477,-0.0478,-0.0478,-0.0496,-0.0459,0,0,0,0,0,-0.0271,-0.0275,-0.0301,-0.0309,-0.0315,-0.0342,-0.035,-0.0374,-0.039,-0.0397,-0.041,-0.0424,-0.0445,-0.045,-0.0467,-0.0473,-0.0475,-0.0493,-0.0493,-0.0494,-0.0509,-0.0527,-0.0531,-0.0485,-0.0485,-0.0485,0,0,-0.0268,-0.028,-0.0283,-0.0305,-0.0319,-0.0343,-0.0349,-0.0374,-0.0405,-0.04,-0.0428,-0.0435,-0.0449,-0.0466,-0.0477,-0.0467,-0.0501,-0.0494,-0.0495,-0.051,-0.0527,-0.0532,-0.0536,-0.0485,-0.0485,-0.0485,0,0,-0.0276,-0.0273,-0.0285,-0.0297,-0.0325,-0.0344,-0.0356,-0.0385,-0.0404,-0.043,-0.0439,-0.0452,-0.0473,-0.0484,-0.0496,-0.0508,-0.0515,-0.0514,-0.0523,-0.0539,-0.0543,-0.0547,-0.0528,-0.053,-0.0502,-0.0502,-0.0502,0,-0.0277,-0.0292,-0.0292,-0.0309,-0.0323,-0.035,-0.0379,-0.04,-0.0432,-0.0446,-0.0445,-0.0479,-0.049,-0.0515,-0.0519,-0.0515,-0.0508,-0.0519,-0.0541,-0.0546,-0.055,-0.0529,-0.0531,-0.0503,-0.0503,-0.0503,-0.0503,0,-0.0293,-0.0308,-0.0312,-0.0345,-0.0362,-0.0384,-0.0418,-0.0439,-0.0465,-0.0488,-0.0518,-0.0517,-0.0538,-0.054,-0.0537,-0.0566,-0.0546,-0.055,-0.0542,-0.0555,-0.0532,-0.0534,-0.0504,-0.0504,-0.0503,-0.0503,0,0,-0.0311,-0.0321,-0.0333,-0.0349,-0.0381,-0.0407,-0.0445,-0.0488,-0.0511,-0.0537,-0.0566,-0.0591,-0.0585,-0.0596,-0.0586,-0.0589,-0.06,-0.0577,-0.0577,-0.0562,-0.0607,-0.0558,-0.0555,-0.0606,-0.0607,-0.0608,-0.057,0,-0.0335,-0.0359,-0.0372,-0.0421,-0.043,-0.0458,-0.0489,-0.0531,-0.055,-0.0575,-0.0593,-0.0611,-0.0609,-0.0604,-0.0617,-0.0615,-0.0611,-0.0608,-0.0594,-0.0593,-0.0553,-0.0559,-0.0612,-0.0571,-0.0572,-0.0572,-0.0572,0,-0.0353,-0.0368,-0.0394,-0.0441,-0.0453,-0.0493,-0.0536,-0.057,-0.0603,-0.0614,-0.0633,-0.0636,-0.0658,-0.0646,-0.0659,-0.0655,-0.064,-0.0626,-0.0624,-0.0584,-0.055,-0.0562,-0.0577,-0.0576,-0.0576,-0.0576,-0.0575,0,-0.0349,-0.0397,-0.0414,-0.0423,-0.0468,-0.0505,-0.0551,-0.0582,-0.0607,-0.0631,-0.0636,-0.0663,-0.0676,-0.0678,-0.0659,-0.0661,-0.0657,-0.0657,-0.0591,-0.0586,-0.0637,-0.0634,-0.0666,-0.0666,-0.0666,-0.0666,-0.0666,0,-0.0358,-0.0383,-0.0413,-0.0424,-0.0476,-0.0508,-0.0562,-0.0595,-0.0626,-0.0643,-0.0655,-0.0655,-0.0688,-0.0684,-0.0667,-0.0633,-0.0667,-0.0599,-0.0583,-0.0636,-0.0633,-0.0636,-0.0633,-0.0664,-0.0665,-0.0665,-0.0665,0,-0.0347,-0.0356,-0.0387,-0.0443,-0.0466,-0.051,-0.0595,-0.0616,-0.0635,-0.0653,-0.066,-0.0676,-0.0659,-0.0656,-0.065,-0.0636,-0.0604,-0.0577,-0.061,-0.0595,-0.0516,-0.0514,-0.0511,-0.0509,-0.0508,-0.0506,-0.0505,0,-0.0344,-0.0339,-0.0396,-0.0431,-0.0468,-0.0532,-0.0564,-0.0618,-0.0628,-0.0646,-0.0644,-0.0643,-0.0639,-0.0594,-0.0596,-0.0552,-0.0543,-0.0525,-0.055,-0.0521,-0.0505,-0.0506,-0.0506,-0.0503,-0.0502,-0.0502,-0.0502,0,-0.0349,-0.0353,-0.039,-0.0431,-0.0486,-0.0543,-0.0596,-0.0601,-0.0629,-0.064,-0.0617,-0.0599,-0.0579,-0.0568,-0.0533,-0.0502,-0.0544,-0.0509,-0.0512,-0.0536,-0.0511,-0.0497,-0.0499,-0.0496,-0.0497,-0.0498,-0.0498,0,-0.0365,-0.0386,-0.0411,-0.0453,-0.0514,-0.0548,-0.0583,-0.0594,-0.0612,-0.0606,-0.0594,-0.0575,-0.0581,-0.0538,-0.0502,-0.0474,-0.0471,-0.0468,-0.0473,-0.0479,-0.0485,-0.045,-0.0407,0,0,0,0,0,-0.0388,-0.0395,-0.0431,-0.049,-0.054,-0.0563,-0.0592,-0.0606,-0.0605,-0.0577,-0.0588,-0.0553,-0.0512,-0.0503,-0.0465,-0.0479,-0.0473,-0.0433,-0.0474,-0.0467,-0.0473,-0.0482,0,0,0,0,0,0,-0.0406,-0.0439,-0.0427,-0.0494,-0.0525,-0.058,-0.0595,-0.0595,-0.0578,-0.0567,-0.0546,-0.0532,-0.0497,-0.0531,-0.0462,-0.0455,-0.0472,-0.0417,-0.0416,-0.0463,-0.0469,-0.0474,-0.0485,0,0,0,0,0]}]]